Tracking 19574 objects as of 15-Feb-2019
HD Live streaming from Space Station
objects crossing your sky now

SSC

Track SSC now!
10-day predictions
SSC is classified as:


NORAD ID: 13874
Int'l Code: 1983-008H
Perigee: 381.2 km
Apogee: 1,739.1 km
Inclination: 63.3 °
Period: 106.3 minutes
Semi major axis: 7431 km
RCS: Unknown
Launch date: February 9, 1983
Source: United States (US)
Launch site: AIR FORCE WESTERN TEST RANGE (AFWTR)
aabbcc
Your satellite tracking list
Your tracking list is empty




NASA's NSSDC Master Catalog

Two Line Element Set (TLE):
1 13874U 83008H   19034.17397780 0.00000540  00000-0  38099-4 0    06
2 13874  63.2870  77.9807 0913651  85.1018 274.8982 13.55242008    07
Source of the keplerian elements: McCants